CW1734 Weather Reports


Display with metric or nautical units.
time (UTC)temp
F
wind
direction
speed
MPH
gust
MPH
rain 1hr
in
rain 24hr
in
rain mn
in
humidity
%
barometer
mb
20260509171404 67 88 4.0 9.0 0.00 0.00 0.00 48 1014.3
20260509170904 67 83 4.0 12.0 0.00 0.00 0.00 49 1014.3
20260509170404 68 97 2.0 8.0 0.00 0.00 0.00 51 1014.3
20260509165904 67 101 4.0 10.0 0.00 0.00 0.00 50 1014.3
20260509165404 67 72 1.0 5.0 0.00 0.00 0.00 50 1014.3
20260509164905 67 81 5.0 9.0 0.00 0.00 0.00 50 1014.3
20260509164404 67 75 3.0 8.0 0.00 0.00 0.00 52 1014.3
20260509163904 67 66 3.0 7.0 0.00 0.00 0.00 53 1014.3
20260509163404 67 106 3.0 7.0 0.00 0.00 0.00 52 1014.4
20260509162404 67 79 3.0 7.0 0.00 0.00 0.00 52 1014.4
20260509161904 67 71 6.0 12.0 0.00 0.00 0.00 51 1014.4
20260509161404 67 58 5.0 12.0 0.00 0.00 0.00 51 1014.4
20260509160404 67 75 3.0 12.0 0.00 0.00 0.00 54 1014.4
20260509155904 67 38 1.0 6.0 0.00 0.00 0.00 53 1014.4
20260509155404 67 87 4.0 14.0 0.00 0.00 0.00 52 1014.4
20260509154905 67 66 4.0 8.0 0.00 0.00 0.00 52 1014.4
20260509154404 67 78 4.0 10.0 0.00 0.00 0.00 50 1014.4
20260509153904 67 80 6.0 10.0 0.00 0.00 0.00 50 1014.5
20260509153404 68 90 3.0 9.0 0.00 0.00 0.00 51 1014.5
20260509152904 68 94 3.0 8.0 0.00 0.00 0.00 53 1014.5
20260509151405 68 85 6.0 13.0 0.00 0.00 0.00 51 1014.7
20260509150405 68 95 4.0 12.0 0.00 0.00 0.00 51 1015.1
20260509145904 69 142 6.0 12.0 0.00 0.00 0.00 49 1015.1
20260509145404 69 90 5.0 13.0 0.00 0.00 0.00 50 1015.1
20260509144404 69 89 5.0 12.0 0.00 0.00 0.00 50 1015.1
20260509143904 69 99 7.0 13.0 0.00 0.00 0.00 48 1015.1
20260509143404 69 85 4.0 8.0 0.00 0.00 0.00 50 1015.1
20260509142904 69 142 6.0 12.0 0.00 0.00 0.00 48 1015.1
20260509142404 70 81 6.0 12.0 0.00 0.00 0.00 48 1015.1
20260509141404 71 108 4.0 13.0 0.00 0.00 0.00 48 1014.9
20260509140905 71 60 5.0 10.0 0.00 0.00 0.00 48 1014.9
20260509140404 71 106 6.0 12.0 0.00 0.00 0.00 47 1014.9
20260509135905 71 131 5.0 10.0 0.00 0.00 0.00 48 1014.8
20260509134404 71 121 3.0 12.0 0.00 0.00 0.00 46 1015.1
20260509133904 71 108 6.0 14.0 0.00 0.00 0.00 47 1015.1
20260509132904 71 58 4.0 9.0 0.00 0.00 0.00 47 1015.1
20260509132404 71 116 5.0 12.0 0.00 0.00 0.00 48 1015.1
20260509131904 71 33 5.0 12.0 0.00 0.00 0.00 47 1015.1
20260509131404 71 117 3.0 10.0 0.00 0.00 0.00 46 1015.1
20260509130904 72 48 6.0 12.0 0.00 0.00 0.00 48 1015.1
20260509130404 72 55 3.0 7.0 0.00 0.00 0.00 50 1015.1
20260509125904 71 104 5.0 10.0 0.00 0.00 0.00 48 1015.1
20260509125404 70 74 5.0 12.0 0.00 0.00 0.00 49 1015.2
20260509124904 71 59 3.0 14.0 0.00 0.00 0.00 49 1015.3
20260509124404 71 64 4.0 8.0 0.00 0.00 0.00 48 1015.3
20260509123904 70 61 4.0 7.0 0.00 0.00 0.00 51 1015.3
20260509123404 70 52 9.0 14.0 0.00 0.00 0.00 50 1015.3
20260509122904 70 64 7.0 13.0 0.00 0.00 0.00 51 1015.3
20260509121904 70 40 5.0 12.0 0.00 0.00 0.00 53 1015.5
20260509121404 69 40 10.0 15.0 0.00 0.00 0.00 51 1015.5
20260509120904 69 32 8.0 14.0 0.00 0.00 0.00 53 1015.5
20260509120404 69 56 6.0 10.0 0.00 0.00 0.00 56 1015.5
20260509115904 68 32 5.0 15.0 0.00 0.00 0.00 58 1015.6
20260509115405 67 48 7.0 15.0 0.00 0.00 0.00 55 1015.6
20260509114904 67 38 5.0 13.0 0.00 0.00 0.00 56 1015.8
20260509114404 68 41 6.0 12.0 0.00 0.00 0.00 54 1015.8
20260509113404 69 48 7.0 13.0 0.00 0.00 0.00 54 1015.9
20260509112904 68 56 6.0 13.0 0.00 0.00 0.00 54 1016.3
20260509112405 68 65 6.0 10.0 0.00 0.00 0.00 56 1016.3
20260509111405 68 30 9.0 14.0 0.00 0.00 0.00 55 1016.3
20260509110904 68 23 9.0 15.0 0.00 0.00 0.00 55 1016.3
20260509110405 68 46 7.0 15.0 0.00 0.00 0.00 56 1016.3
20260509105904 68 51 5.0 12.0 0.00 0.00 0.00 56 1016.3
20260509104904 67 49 8.0 14.0 0.00 0.00 0.00 57 1016.7
20260509102904 67 53 6.0 12.0 0.00 0.00 0.00 59 1016.7
20260509102405 66 57 5.0 13.0 0.00 0.00 0.00 61 1016.7
20260509101904 66 67 6.0 12.0 0.00 0.00 0.00 61 1016.7
20260509101404 66 55 5.0 12.0 0.00 0.00 0.00 63 1016.7
20260509100904 66 83 5.0 12.0 0.00 0.00 0.00 63 1016.7
20260509100404 66 60 4.0 8.0 0.00 0.00 0.00 66 1016.7
20260509095904 65 57 7.0 12.0 0.00 0.00 0.00 64 1016.7
20260509094904 64 45 6.0 12.0 0.00 0.00 0.00 66 1016.7
20260509094404 63 86 5.0 8.0 0.00 0.00 0.00 66 1016.7
20260509093904 63 53 5.0 6.0 0.00 0.00 0.00 68 1016.7
20260509093404 63 75 4.0 8.0 0.00 0.00 0.00 67 1016.7
20260509092904 63 87 4.0 8.0 0.00 0.00 0.00 66 1016.7
20260509092405 63 27 3.0 7.0 0.00 0.00 0.00 68 1016.7
20260509091905 62 124 2.0 6.0 0.00 0.00 0.00 69 1016.7
20260509090904 62 86 4.0 7.0 0.00 0.00 0.00 70 1016.8
20260509090404 61 43 3.0 8.0 0.00 0.00 0.00 71 1016.8
20260509085904 61 86 3.0 7.0 0.00 0.00 0.00 72 1016.8
20260509085404 60 45 3.0 12.0 0.00 0.00 0.00 72 1016.8
20260509084904 60 62 5.0 12.0 0.00 0.00 0.00 72 1016.8
20260509084405 60 35 4.0 13.0 0.00 0.00 0.00 72 1017.0
20260509083905 59 58 4.0 10.0 0.00 0.00 0.00 73 1017.0
20260509083404 59 52 3.0 8.0 0.00 0.00 0.00 74 1017.0
20260509082904 59 68 5.0 10.0 0.00 0.00 0.00 74 1017.0
20260509082404 59 56 3.0 7.0 0.00 0.00 0.00 74 1017.0
20260509081905 59 55 4.0 12.0 0.00 0.00 0.00 74 1017.0
20260509081404 59 40 5.0 8.0 0.00 0.01 0.00 73 1017.0
20260509080404 59 34 5.0 10.0 0.00 0.02 0.00 74 1017.0
20260509075904 59 43 6.0 10.0 0.00 0.02 0.00 75 1016.8
20260509075405 59 50 5.0 8.0 0.00 0.02 0.00 75 1016.8
20260509074905 58 50 5.0 10.0 0.00 0.02 0.00 76 1016.8
20260509073904 58 68 5.0 10.0 0.00 0.02 0.00 78 1016.8
20260509073404 57 49 5.0 10.0 0.00 0.03 0.00 79 1016.8
20260509072404 56 56 6.0 8.0 0.00 0.03 0.00 81 1016.7
20260509071904 55 46 4.0 8.0 0.00 0.03 0.00 84 1016.7
20260509071404 55 58 3.0 10.0 0.00 0.03 0.00 85 1016.7
20260509070904 54 42 5.0 8.0 0.00 0.03 0.00 86 1016.7
20260509070404 54 63 4.0 7.0 0.00 0.03 0.00 88 1016.8
20260509065904 53 64 2.0 5.0 0.00 0.03 0.00 90 1016.8
20260509065404 53 71 2.0 3.0 0.00 0.03 0.00 92 1016.8
20260509064904 52 58 2.0 5.0 0.00 0.03 0.00 92 1016.8
20260509064404 51 76 1.0 3.0 0.00 0.03 0.00 93 1016.8
20260509063904 51 110 0.0 2.0 0.00 0.03 0.00 93 1016.8
20260509062904 49 172 0.0 0.0 0.00 0.03 0.00 93 1016.8
20260509062404 49 172 0.0 0.0 0.00 0.03 0.00 93 1016.8
20260509061904 49 172 0.0 0.0 0.00 0.03 0.00 93 1016.5
20260509061404 48 35 0.0 0.0 0.00 0.03 0.00 93 1016.5
20260509060904 48 46 0.0 1.0 0.00 0.03 0.00 93 1016.5
20260509060404 47 139 0.0 0.0 0.00 0.03 0.00 93 1016.5
20260509055904 47 139 0.0 1.0 0.00 0.03 0.00 93 1016.5
20260509055404 46 148 0.0 0.0 0.00 0.03 0.00 93 1016.5
20260509054904 46 145 0.0 0.0 0.00 0.03 0.00 93 1016.5
20260509054405 46 145 0.0 0.0 0.00 0.03 0.00 93 1016.4
20260509053904 45 145 0.0 0.0 0.00 0.03 0.00 93 1016.4
20260509053404 45 145 0.0 0.0 0.00 0.03 0.00 93 1016.4
20260509052404 45 145 0.0 0.0 0.00 0.03 0.00 92 1016.1
20260509051905 45 145 0.0 0.0 0.00 0.03 0.00 92 1016.1
20260509051404 44 145 0.0 0.0 0.00 0.03 0.00 93 1016.1
20260509050904 44 145 0.0 0.0 0.00 0.03 0.00 92 1016.1
20260509045904 44 145 0.0 0.0 0.00 0.03 0.00 92 1016.2
20260509045404 44 145 0.0 0.0 0.00 0.03 0.00 92 1016.3
20260509044904 44 145 0.0 0.0 0.00 0.03 0.00 93 1016.3
20260509044404 44 145 0.0 0.0 0.00 0.03 0.00 92 1016.2
20260509043904 44 145 0.0 0.0 0.00 0.03 0.00 92 1016.2
20260509043404 44 145 0.0 0.0 0.00 0.03 0.00 92 1016.3
20260509042904 44 144 1.0 1.0 0.00 0.03 0.00 92 1016.3
20260509041904 44 59 0.0 0.0 0.00 0.03 0.00 92 1016.3
20260509041404 44 59 0.0 0.0 0.00 0.03 0.00 92 1016.4
20260509040904 44 59 0.0 0.0 0.00 0.03 0.00 92 1016.4
20260509035904 44 59 0.0 0.0 0.00 0.03 0.00 92 1016.4
20260509035404 44 59 0.0 0.0 0.00 0.03 0.00 92 1016.4
20260509034904 44 59 0.0 0.0 0.00 0.03 0.00 92 1016.4
20260509034404 44 59 0.0 0.0 0.00 0.03 0.00 92 1016.4
20260509033904 44 59 0.0 0.0 0.00 0.03 0.00 92 1016.3
20260509032904 44 59 0.0 0.0 0.00 0.03 0.00 92 1016.4
20260509032404 44 59 0.0 0.0 0.00 0.03 0.00 92 1016.4
20260509031904 44 59 0.0 0.0 0.00 0.03 0.00 92 1016.4
20260509031404 44 59 0.0 0.0 0.00 0.03 0.00 92 1016.4
20260509030905 44 59 0.0 0.0 0.00 0.03 0.00 92 1016.4
20260509024904 45 59 0.0 0.0 0.00 0.03 0.00 92 1016.6
20260509024404 45 59 0.0 0.0 0.00 0.03 0.00 92 1016.6
20260509023904 45 59 0.0 0.0 0.00 0.03 0.00 92 1016.6
20260509023405 45 59 0.0 0.0 0.00 0.03 0.00 92 1016.6
20260509022904 45 59 0.0 0.0 0.00 0.03 0.00 92 1016.4
20260509022404 45 59 0.0 0.0 0.00 0.03 0.00 92 1016.4
20260509021904 45 59 0.0 0.0 0.00 0.03 0.00 92 1016.4
20260509021404 45 59 0.0 0.0 0.00 0.03 0.00 92 1016.4
20260509020904 45 59 0.0 0.0 0.00 0.03 0.00 92 1016.4
20260509020404 45 55 0.0 0.0 0.00 0.03 0.00 92 1016.4
20260509015904 45 54 0.0 1.0 0.00 0.03 0.00 92 1016.4
20260509015404 45 52 0.0 3.0 0.00 0.03 0.00 92 1016.4
20260509014904 45 62 0.0 2.0 0.00 0.03 0.00 92 1016.4
20260509014404 45 73 1.0 3.0 0.00 0.03 0.00 92 1016.5
20260509013904 45 68 1.0 2.0 0.00 0.03 0.00 92 1016.5
20260509013403 45 70 0.0 0.0 0.00 0.03 0.00 92 1016.5
20260509012904 45 76 0.0 0.0 0.00 0.03 0.00 92 1016.5
20260509011904 45 77 0.0 0.0 0.00 0.03 0.00 91 1016.5
20260509011404 45 77 0.0 0.0 0.00 0.03 0.00 92 1016.6
20260509010904 45 77 0.0 0.0 0.00 0.03 0.00 91 1016.7
20260509010404 45 77 0.0 0.0 0.00 0.03 0.00 91 1016.7
20260509005904 45 77 0.0 0.0 0.00 0.03 0.00 91 1016.7
20260509004904 45 77 0.0 0.0 0.00 0.03 0.00 91 1016.8
20260509004404 45 77 0.0 0.0 0.00 0.03 0.00 91 1016.7
20260509003904 46 77 0.0 0.0 0.00 0.03 0.00 91 1016.7
20260509003404 46 77 0.0 0.0 0.00 0.03 0.00 91 1016.7
20260509002904 46 77 0.0 0.0 0.00 0.03 0.00 91 1016.9
20260509002404 46 77 0.0 0.0 0.00 0.03 0.00 91 1016.9
20260509001904 46 77 0.0 0.0 0.00 0.03 0.00 91 1016.9
20260509001404 46 77 0.0 0.0 0.00 0.03 0.00 91 1016.9
20260509000904 46 77 0.0 0.0 0.00 0.03 0.00 91 1016.9
20260509000404 46 77 0.0 0.0 0.00 0.03 0.00 91 1016.9
20260508235904 46 77 0.0 0.0 0.00 0.03 0.00 91 1016.9
20260508235404 46 77 0.0 0.0 0.00 0.03 0.00 91 1016.8
20260508234904 46 77 0.0 0.0 0.00 0.03 0.00 90 1016.9
20260508234404 46 77 0.0 0.0 0.00 0.03 0.00 90 1016.9
20260508233904 46 77 0.0 0.0 0.00 0.03 0.00 90 1016.9
20260508233404 46 77 0.0 0.0 0.00 0.03 0.00 90 1016.9
20260508232904 46 77 0.0 0.0 0.00 0.03 0.00 90 1016.9
20260508231904 46 77 0.0 0.0 0.00 0.03 0.00 90 1016.9
20260508231404 46 77 0.0 0.0 0.00 0.03 0.00 90 1017.0
20260508230904 46 77 0.0 0.0 0.00 0.03 0.00 90 1017.0
20260508230404 46 77 0.0 0.0 0.00 0.03 0.00 89 1017.0
20260508225904 46 77 0.0 0.0 0.00 0.03 0.03 89 1017.0
20260508225404 47 77 0.0 0.0 0.00 0.03 0.03 89 1017.0
20260508224404 47 77 0.0 0.0 0.00 0.03 0.03 89 1016.9
20260508223904 47 77 0.0 0.0 0.00 0.03 0.03 89 1017.0
20260508223404 47 77 0.0 0.0 0.00 0.03 0.03 89 1017.0
20260508222404 47 77 0.0 0.0 0.00 0.03 0.03 88 1017.0
20260508221405 47 77 0.0 0.0 0.00 0.03 0.03 88 1016.7
20260508220904 47 77 0.0 0.0 0.00 0.03 0.03 88 1016.7
20260508220404 48 77 0.0 0.0 0.00 0.03 0.03 87 1016.7
20260508215904 48 77 0.0 0.0 0.00 0.03 0.03 87 1016.7
20260508215404 48 77 0.0 0.0 0.00 0.03 0.03 87 1016.7
20260508214904 48 77 0.0 0.0 0.00 0.03 0.03 87 1016.7
20260508214404 48 77 0.0 0.0 0.00 0.03 0.03 87 1016.7
20260508213904 48 77 0.0 0.0 0.00 0.03 0.03 86 1016.7
20260508213404 48 77 0.0 0.0 0.00 0.03 0.03 86 1016.7
20260508212904 49 77 0.0 0.0 0.00 0.03 0.03 86 1016.7
20260508212404 49 77 0.0 0.0 0.00 0.03 0.03 85 1016.7
20260508211904 49 77 0.0 0.0 0.00 0.03 0.03 85 1016.7
20260508211404 49 77 0.0 0.0 0.00 0.03 0.03 84 1016.7
20260508210904 49 77 0.0 0.0 0.00 0.03 0.03 84 1016.6
20260508210404 50 77 0.0 0.0 0.00 0.03 0.03 84 1016.6
20260508205904 50 77 0.0 0.0 0.00 0.03 0.03 83 1016.6
20260508204904 50 77 0.0 0.0 0.00 0.03 0.03 83 1016.6
20260508204404 51 77 0.0 0.0 0.00 0.03 0.03 83 1016.6
20260508203904 51 77 0.0 0.0 0.00 0.03 0.03 82 1016.6
20260508203405 51 77 0.0 0.0 0.00 0.03 0.03 82 1016.6
20260508202904 51 74 0.0 0.0 0.00 0.03 0.03 81 1016.6
20260508202403 52 77 0.0 0.0 0.00 0.03 0.03 80 1016.6
20260508201904 52 78 0.0 3.0 0.00 0.03 0.03 80 1016.6
20260508201404 52 90 0.0 2.0 0.00 0.03 0.03 79 1016.3
20260508200904 52 90 1.0 3.0 0.00 0.03 0.03 79 1016.3
20260508200404 52 86 1.0 5.0 0.00 0.03 0.03 79 1016.3
20260508195404 52 89 1.0 2.0 0.00 0.03 0.03 79 1016.2
20260508194904 53 90 1.0 3.0 0.00 0.03 0.03 79 1016.2
20260508194404 53 95 1.0 2.0 0.00 0.03 0.03 79 1016.1
20260508193404 54 99 0.0 0.0 0.00 0.03 0.03 76 1016.0
20260508192904 54 99 0.0 0.0 0.00 0.03 0.03 74 1016.0
20260508192404 55 99 0.0 0.0 0.00 0.03 0.03 73 1016.0
20260508191905 56 99 0.0 0.0 0.00 0.03 0.03 72 1015.9
20260508191404 56 99 0.0 0.0 0.00 0.03 0.03 71 1015.9
20260508190904 56 99 0.0 3.0 0.00 0.03 0.03 70 1015.9
20260508190404 57 102 1.0 3.0 0.00 0.03 0.03 69 1015.8
20260508185904 57 103 1.0 3.0 0.00 0.03 0.03 68 1015.7
20260508185404 57 104 0.0 3.0 0.00 0.03 0.03 67 1015.7
20260508184904 58 104 2.0 3.0 0.00 0.03 0.03 66 1015.7
20260508184405 58 93 2.0 5.0 0.00 0.03 0.03 65 1015.5
20260508183904 59 88 1.0 5.0 0.00 0.03 0.03 63 1015.5
20260508183404 59 107 3.0 5.0 0.00 0.03 0.03 63 1015.5
20260508182904 59 99 2.0 6.0 0.00 0.03 0.03 62 1015.5
20260508182404 60 106 1.0 6.0 0.00 0.03 0.03 63 1015.5
20260508181403 60 91 2.0 6.0 0.00 0.03 0.03 62 1015.5
20260508180904 60 92 3.0 7.0 0.00 0.03 0.03 61 1015.4
20260508180404 60 74 1.0 6.0 0.00 0.03 0.03 60 1015.4
20260508175904 60 161 2.0 6.0 0.00 0.03 0.03 60 1015.4
20260508175404 60 96 5.0 8.0 0.00 0.03 0.03 59 1015.4
20260508174404 60 82 4.0 8.0 0.00 0.03 0.03 58 1015.5
20260508173904 61 81 3.0 7.0 0.00 0.03 0.03 58 1015.5
20260508172904 61 73 4.0 7.0 0.00 0.03 0.03 57 1015.5
20260508172404 61 74 3.0 7.0 0.00 0.03 0.03 58 1015.5
20260508171904 61 49 2.0 8.0 0.00 0.03 0.03 57 1015.5